Marion, IN

9:57 PM EDT on April 28, 2017 (GMT -0400)
Marion Municipal

Weather History for KMZZ - October, 2011

Change the Weather History Date:

Monday, October 17, 2011

  Actual Average (KMIE) Record (KMIE)
Temperature  
Mean Temperature 48 °F -  
Max Temperature 59 °F 63 °F 83 °F (2016)
Min Temperature 36 °F 43 °F 25 °F (1982)
Degree Days  
Heating Degree Days 18    
Moisture  
Dew Point 22 °F    
Average Humidity 40    
Maximum Humidity 72    
Minimum Humidity 12    
Precipitation  
Precipitation 0.00 in - - ()
Sea Level Pressure  
Sea Level Pressure 29.89 in    
Wind  
Wind Speed 0 mph (West)    
Max Wind Speed 14 mph    
Max Gust Speed 21 mph    
Visibility 10 miles    
Events      
Averages and records for this station are not official NWS values.
T = Trace of Precipitation, MM = Missing Value Source: NWS Daily Summary

Daily Weather History Graph

Daily Weather History Graph

Search for Another Location

Airport or City:

Trip Planner

Search our weather history database for the weather conditions in past years. The results will help you decide how hot, cold, wet, or windy it might be!

Date:

Astronomy

Oct. 17, 2011 Rise Set
Actual Time 7:55 AM EDT 7:00 PM EDT
Civil Twilight 7:27 AM EDT 7:27 PM EDT
Nautical Twilight 6:56 AM EDT 7:59 PM EDT
Astronomical Twilight 6:24 AM EDT 8:30 PM EDT
Moon 10:39 PM EDT (10/17) 1:02 PM EDT (10/17)
Length of Visible Light 11h 59m
Length of Day
11h 04m
Waning Gibbous, 74% of the Moon is Illuminated
Oct 17
Waning Gibbous
Oct 19
Last Quarter
Oct 26
New
Nov 2
First Quarter
Nov 10
Full

Hourly Weather History & Observations

Time (EDT) Temp. Dew Point Humidity Pressure Visibility Wind Dir Wind Speed Gust Speed Precip Events Conditions
12:15 AM 49.3 °F 30.9 °F 49% 29.88 in 10.0 mi Calm Calm - N/A   Clear
12:35 AM 48.6 °F 31.1 °F 51% 29.89 in 10.0 mi Calm Calm - N/A   Clear
12:55 AM 47.3 °F 31.5 °F 54% 29.89 in 10.0 mi Calm Calm - N/A   Clear
1:15 AM 47.1 °F 31.3 °F 54% 29.89 in 10.0 mi Calm Calm - N/A   Clear
1:35 AM 46.9 °F 31.1 °F 54% 29.89 in 10.0 mi Calm Calm - N/A   Clear
1:55 AM 46.6 °F 30.9 °F 54% 29.89 in 10.0 mi Calm Calm - N/A   Clear
2:15 AM 46.8 °F 30.6 °F 53% 29.89 in 10.0 mi Calm Calm - N/A   Clear
2:35 AM 46.4 °F 30.2 °F 53% 29.89 in 10.0 mi Calm Calm - N/A   Clear
2:55 AM 44.4 °F 30.2 °F 57% 29.90 in 10.0 mi Calm Calm - N/A   Clear
3:15 AM 42.3 °F 30.2 °F 62% 29.90 in 10.0 mi Calm Calm - N/A   Clear
3:35 AM 42.1 °F 30.2 °F 63% 29.91 in 10.0 mi Calm Calm - N/A   Clear
3:55 AM 41.5 °F 30.0 °F 64% 29.91 in 10.0 mi Calm Calm - N/A   Clear
4:15 AM 41.0 °F 29.8 °F 64% 29.91 in 10.0 mi Calm Calm - N/A   Clear
4:35 AM 42.3 °F 29.7 °F 61% 29.90 in 10.0 mi Calm Calm - N/A   Clear
4:55 AM 41.9 °F 29.1 °F 61% 29.90 in 10.0 mi Calm Calm - N/A   Clear
5:15 AM 40.3 °F 29.1 °F 64% 29.90 in 10.0 mi Calm Calm - N/A   Clear
5:35 AM 38.7 °F 29.1 °F 69% 29.90 in 10.0 mi Calm Calm - N/A   Clear
5:55 AM 38.3 °F 29.3 °F 70% 29.90 in 10.0 mi Calm Calm - N/A   Clear
6:35 AM 38.5 °F 29.1 °F 69% 29.91 in 10.0 mi Calm Calm - N/A   Clear
6:55 AM 38.3 °F 28.8 °F 69% 29.91 in 10.0 mi Calm Calm - N/A   Clear
7:15 AM 37.6 °F 28.2 °F 69% 29.91 in 10.0 mi Calm Calm - N/A   Clear
7:35 AM 36.7 °F 27.9 °F 70% 29.91 in 10.0 mi Calm Calm - N/A   Clear
7:55 AM 36.3 °F 28.0 °F 72% 29.91 in 10.0 mi Calm Calm - N/A   Clear
8:15 AM 36.1 °F 28.0 °F 72% 29.91 in 10.0 mi Calm Calm - N/A   Clear
8:35 AM 37.4 °F 28.4 °F 70% 29.91 in 10.0 mi Calm Calm - N/A   Clear
8:55 AM 38.5 °F 28.8 °F 68% 29.92 in 10.0 mi Calm Calm - N/A   Clear
9:15 AM 40.5 °F 29.3 °F 64% 29.92 in 10.0 mi Calm Calm - N/A   Clear
9:35 AM 42.4 °F 30.0 °F 61% 29.92 in 10.0 mi Calm Calm - N/A   Clear
9:55 AM 44.6 °F 29.3 °F 55% 29.92 in 10.0 mi Calm Calm - N/A   Clear
10:15 AM 46.0 °F 28.6 °F 51% 29.92 in 10.0 mi Calm Calm - N/A   Clear
10:35 AM 48.0 °F 26.8 °F 44% 29.92 in 10.0 mi Calm Calm - N/A   Clear
10:55 AM 50.0 °F 24.6 °F 37% 29.92 in 10.0 mi Calm Calm - N/A   Clear
11:15 AM 51.6 °F 22.3 °F 32% 29.92 in 10.0 mi Calm Calm - N/A   Clear
11:35 AM 52.7 °F 22.6 °F 31% 29.92 in 10.0 mi Calm Calm - N/A   Clear
11:55 AM 53.4 °F 21.2 °F 28% 29.92 in 10.0 mi Calm Calm - N/A   Clear
12:15 PM 54.5 °F 17.6 °F 23% 29.91 in 10.0 mi Calm Calm - N/A   Clear
12:35 PM 55.8 °F 15.3 °F 20% 29.91 in 10.0 mi Calm Calm - N/A   Clear
12:55 PM 57.0 °F 12.0 °F 17% 29.90 in 10.0 mi Calm Calm - N/A   Clear
1:15 PM 58.1 °F 10.2 °F 15% 29.90 in 10.0 mi Calm Calm - N/A   Clear
1:35 PM 58.6 °F 8.1 °F 13% 29.90 in 10.0 mi West 11.5 mph 17.3 mph N/A   Clear
1:55 PM 59.7 °F 6.1 °F 12% 29.89 in 10.0 mi Calm Calm - N/A   Clear
2:15 PM 59.0 °F 7.5 °F 13% 29.88 in 10.0 mi West 5.8 mph - N/A   Clear
2:35 PM 58.8 °F 9.3 °F 14% 29.88 in 10.0 mi Calm Calm - N/A   Clear
2:55 PM 59.4 °F 9.5 °F 14% 29.88 in 10.0 mi West 6.9 mph - N/A   Clear
3:15 PM 59.5 °F 9.7 °F 14% 29.87 in 10.0 mi West 13.8 mph 20.7 mph N/A   Clear
3:35 PM 59.9 °F 8.6 °F 13% 29.86 in 7.0 mi Calm Calm - N/A   Clear
3:55 PM 59.0 °F 9.1 °F 14% 29.85 in 10.0 mi Calm Calm - N/A   Clear
4:35 PM 59.5 °F 8.1 °F 13% 29.84 in 10.0 mi Calm Calm - N/A   Clear
5:35 PM 57.9 °F 12.9 °F 17% 29.84 in 10.0 mi Calm Calm - N/A   Scattered Clouds
5:55 PM 57.4 °F 14.2 °F 18% 29.85 in 10.0 mi Calm Calm - N/A   Mostly Cloudy
6:15 PM 56.8 °F 14.2 °F 19% 29.85 in 10.0 mi Calm Calm - N/A   Scattered Clouds
6:35 PM 56.3 °F 13.8 °F 19% 29.85 in 10.0 mi Calm Calm - N/A   Overcast
6:55 PM 55.9 °F 15.3 °F 20% 29.85 in 10.0 mi Calm Calm - N/A   Overcast
7:15 PM 55.4 °F 15.3 °F 21% 29.85 in 10.0 mi Calm Calm - N/A   Overcast
7:35 PM 54.1 °F 19.4 °F 26% 29.86 in 10.0 mi Calm Calm - N/A   Overcast
7:55 PM 53.8 °F 19.9 °F 27% 29.85 in 10.0 mi Calm Calm - N/A   Overcast
8:15 PM 54.0 °F 17.4 °F 24% 29.85 in 10.0 mi Calm Calm - N/A   Overcast
8:35 PM 54.1 °F 16.3 °F 23% 29.87 in 10.0 mi Calm Calm - N/A   Overcast
8:55 PM 54.5 °F 15.4 °F 21% 29.87 in 10.0 mi Calm Calm - N/A   Overcast
9:15 PM 54.1 °F 16.2 °F 22% 29.86 in 10.0 mi Calm Calm - N/A   Overcast
9:35 PM 54.0 °F 16.5 °F 23% 29.86 in 10.0 mi Calm Calm - N/A   Overcast
9:55 PM 53.8 °F 18.3 °F 25% 29.86 in 10.0 mi Calm Calm - N/A   Overcast
10:15 PM 53.4 °F 21.2 °F 28% 29.86 in 10.0 mi Calm Calm - N/A   Overcast
10:35 PM 52.5 °F 24.3 °F 33% 29.86 in 10.0 mi Calm Calm - N/A   Overcast
10:55 PM 52.2 °F 25.3 °F 35% 29.88 in 10.0 mi Calm Calm - N/A   Overcast
11:15 PM 52.2 °F 25.0 °F 35% 29.88 in 10.0 mi Calm Calm - N/A   Overcast
11:35 PM 51.8 °F 25.9 °F 37% 29.88 in 10.0 mi Calm Calm - N/A   Overcast
11:55 PM 50.9 °F 27.9 °F 41% 29.88 in 10.0 mi Calm Calm - N/A   Overcast